Location: Laura�t
(43.9341°N, 0.2497°E)
Time: 23:31:13
(UTC+00:00)

Cosmos 1703 Rocket - Pass Details

Date: 03 March 2021
Orbit: 604 x 634 km, 82.5° (Epoch: 17 April)

Event Time Altitude Azimuth Distance (km) Brightness Sun altitude
Rises 18:48:10 0° 359° (N) 2,910 7.1 -11.2°
Reaches altitude 10° 18:50:35 10° 8° (N) 1,993 6.1 -11.7°
Maximum altitude 18:54:38 35° 75° (ENE) 997 4.1 -12.4°
Drops below altitude 10° 18:58:38 10° 142° (SE) 1,962 5.7 -13.1°
Enters shadow 18:59:28 - 146° (SSE) 2,272 6.1 -13.3°
